Weather History for Grand Marais Airport, MN

Change the Weather History Date:

Saturday, January 26, 2013

  Actual Average Record
Temperature  
Mean Temperature 5 °F -  
Max Temperature 17 °F 16 °F 33 °F (2006)
Min Temperature -7 °F 1 °F -23 °F (1997)
Degree Days  
Heating Degree Days 60    
Moisture  
Dew Point 1 °F    
Average Humidity 78    
Maximum Humidity 86    
Minimum Humidity 62    
Precipitation  
Precipitation 0.00 in - - ()
Sea Level Pressure  
Sea Level Pressure 30.17 in    
Wind  
Wind Speed 8 mph (ESE)    
Max Wind Speed 13 mph    
Max Gust Speed 18 mph    
Visibility 8 miles    
Events Snow    
Averages and records for this station are not official NWS values.
T = Trace of Precipitation, MM = Missing Value Source: NWS Daily Summary

Daily Weather History Graph

Daily Weather History Graph

Search for Another Location

Airport:

Trip Planner

Search our weather history database for the weather conditions in past years. The results will help you decide how hot, cold, wet, or windy it might be!

Date:

Astronomy

Jan. 26, 2013 Rise Set
Actual Time 7:35 AM CST 4:53 PM CST
Civil Twilight 7:01 AM CST 5:26 PM CST
Nautical Twilight 6:24 AM CST 6:04 PM CST
Astronomical Twilight 5:47 AM CST 6:41 PM CST
Moon 4:51 PM CST 6:51 AM CST
Length of Visible Light 10h 25m
Length of Day
9h 17m
Full, 100% of the Moon is Illuminated
Jan 26
Full
Jan 26
Full
Feb 3
Last Quarter
Feb 10
New
Feb 17
First Quarter

Hourly Weather History & Observations

Time (CST) Temp. Windchill Dew Point Humidity Pressure Visibility Wind Dir Wind Speed Gust Speed Precip Events Conditions
12:13 AM 1.4 °F -14.5 °F -4.0 °F 78% 30.09 in 10.0 mi NNW 10.4 mph 18.4 mph N/A   Clear
12:34 AM 1.4 °F -16.1 °F -5.8 °F 72% 30.10 in 10.0 mi NNW 12.7 mph 17.3 mph N/A   Clear
12:53 AM -0.4 °F -18.4 °F -5.8 °F 78% 30.12 in 10.0 mi NNW 12.7 mph 17.3 mph N/A   Clear
1:13 AM -0.4 °F -17.6 °F -5.8 °F 78% 30.13 in 10.0 mi NNW 11.5 mph - N/A   Clear
1:34 AM -0.4 °F -18.4 °F -5.8 °F 78% 30.14 in 10.0 mi NNW 12.7 mph - N/A   Scattered Clouds
1:54 AM -0.4 °F -18.4 °F -5.8 °F 78% 30.14 in 10.0 mi NNW 12.7 mph - N/A   Clear
2:13 AM -0.4 °F -17.6 °F -5.8 °F 78% 30.15 in 10.0 mi North 11.5 mph - N/A   Clear
2:33 AM -0.4 °F -18.4 °F -7.6 °F 72% 30.15 in 10.0 mi North 12.7 mph - N/A   Scattered Clouds
2:53 AM -0.4 °F -17.6 °F -7.6 °F 72% 30.16 in 10.0 mi North 11.5 mph - N/A   Clear
3:13 AM -2.2 °F -18.9 °F -7.6 °F 78% 30.16 in 10.0 mi NNW 10.4 mph - N/A   Clear
3:34 AM -2.2 °F -19.9 °F -7.6 °F 78% 30.16 in 10.0 mi North 11.5 mph - N/A   Clear
3:54 AM -2.2 °F -18.0 °F -7.6 °F 78% 30.15 in 10.0 mi NNW 9.2 mph - N/A   Clear
4:13 AM -2.2 °F -18.0 °F -7.6 °F 78% 30.16 in 10.0 mi NNW 9.2 mph - N/A   Clear
4:34 AM -2.2 °F -16.8 °F -9.4 °F 71% 30.15 in 10.0 mi NNW 8.1 mph - N/A   Scattered Clouds
4:53 AM -4.0 °F -17.8 °F -9.4 °F 78% 30.16 in 10.0 mi North 6.9 mph - N/A   Scattered Clouds
5:13 AM -4.0 °F -17.8 °F -9.4 °F 78% 30.17 in 10.0 mi North 6.9 mph - N/A   Clear
5:34 AM -4.0 °F -17.8 °F -9.4 °F 78% 30.17 in 10.0 mi North 6.9 mph - N/A   Scattered Clouds
5:54 AM -4.0 °F -16.3 °F -9.4 °F 78% 30.17 in 10.0 mi NNW 5.8 mph - N/A   Scattered Clouds
6:14 AM -5.8 °F -19.9 °F -11.2 °F 77% 30.17 in 10.0 mi NNW 6.9 mph - N/A   Clear
6:34 AM -5.8 °F -18.4 °F -11.2 °F 77% 30.18 in 10.0 mi NNW 5.8 mph - N/A   Clear
6:53 AM -5.8 °F - -11.2 °F 77% 30.19 in 10.0 mi Calm Calm - N/A   Clear
7:13 AM -5.8 °F - -11.2 °F 77% 30.19 in 10.0 mi Calm Calm - N/A   Clear
7:34 AM -4.0 °F - -9.4 °F 78% 30.20 in 10.0 mi Calm Calm - N/A   Clear
7:53 AM -7.6 °F - -13.0 °F 77% 30.21 in 10.0 mi Calm Calm - N/A   Clear
8:13 AM -4.0 °F - -9.4 °F 78% 30.21 in 10.0 mi Calm Calm - N/A   Clear
8:34 AM -4.0 °F - -9.4 °F 78% 30.22 in 10.0 mi Calm Calm - N/A   Clear
8:53 AM -5.8 °F - -11.2 °F 77% 30.22 in 5.0 mi Calm Calm - N/A Snow Light Snow
9:13 AM -2.2 °F - -7.6 °F 78% 30.23 in 4.0 mi Calm Calm - N/A Snow Light Snow
9:34 AM 1.4 °F - -5.8 °F 72% 30.23 in 2.5 mi Calm Calm - N/A Snow Light Snow
9:53 AM 3.2 °F - -2.2 °F 78% 30.23 in 2.0 mi Calm Calm - N/A Snow Light Snow
10:13 AM 5.0 °F - -0.4 °F 78% 30.24 in 4.0 mi Calm Calm - N/A Snow Light Snow
10:53 AM 8.6 °F 2.0 °F 1.4 °F 73% 30.24 in 10.0 mi SE 3.5 mph - N/A   Overcast
11:13 AM 8.6 °F -1.3 °F -0.4 °F 67% 30.24 in 10.0 mi ESE 5.8 mph - N/A   Overcast
11:34 AM 8.6 °F 0.1 °F -0.4 °F 67% 30.24 in 10.0 mi ESE 4.6 mph - N/A   Overcast
11:53 AM 8.6 °F -3.7 °F -0.4 °F 67% 30.23 in 10.0 mi East 8.1 mph - N/A   Overcast
12:14 PM 10.4 °F 2.2 °F -0.4 °F 62% 30.22 in 10.0 mi ESE 4.6 mph - N/A Snow Light Snow
12:34 PM 10.4 °F 0.8 °F 3.2 °F 73% 30.22 in 7.0 mi SE 5.8 mph - N/A Snow Light Snow
12:54 PM 10.4 °F 2.2 °F 3.2 °F 73% 30.21 in 4.0 mi SE 4.6 mph - N/A Snow Light Snow
1:13 PM 12.2 °F 6.1 °F 5.0 °F 73% 30.21 in 5.0 mi SE 3.5 mph - N/A Snow Light Snow
1:33 PM 12.2 °F 1.7 °F 6.8 °F 79% 30.21 in 1.8 mi SE 6.9 mph - N/A Snow Light Snow
1:54 PM 12.2 °F 1.7 °F 6.8 °F 79% 30.20 in 1.5 mi ESE 6.9 mph - N/A Snow Light Snow
2:13 PM 12.2 °F 1.7 °F 6.8 °F 79% 30.20 in 2.0 mi SE 6.9 mph - N/A Snow Light Snow
2:33 PM 12.2 °F 4.3 °F 8.6 °F 85% 30.19 in 2.5 mi SE 4.6 mph - N/A Snow Light Snow
2:54 PM 12.2 °F 1.7 °F 8.6 °F 85% 30.19 in 4.0 mi ESE 6.9 mph - N/A Snow Light Snow
3:33 PM 12.2 °F 1.7 °F 8.6 °F 85% 30.18 in 1.8 mi ESE 6.9 mph - N/A Snow Light Snow
3:54 PM 12.2 °F 2.9 °F 8.6 °F 85% 30.18 in 1.0 mi ESE 5.8 mph - N/A Snow Light Snow
4:13 PM 12.2 °F 1.7 °F 8.6 °F 85% 30.17 in 1.0 mi ESE 6.9 mph - N/A Snow Snow
4:34 PM 12.2 °F 1.7 °F 8.6 °F 85% 30.17 in 1.2 mi ESE 6.9 mph - N/A Snow Snow
4:53 PM 12.2 °F 4.3 °F 8.6 °F 85% 30.16 in 4.0 mi ESE 4.6 mph - N/A Snow Light Snow
5:14 PM 12.2 °F 6.1 °F 8.6 °F 85% 30.15 in 7.0 mi ESE 3.5 mph - N/A Snow Light Snow
5:34 PM 14.0 °F 5.1 °F 10.4 °F 86% 30.15 in 10.0 mi ESE 5.8 mph - N/A   Overcast
5:53 PM 14.0 °F 6.5 °F 10.4 °F 86% 30.15 in 10.0 mi SE 4.6 mph - N/A   Overcast
6:13 PM 15.8 °F 8.6 °F 10.4 °F 79% 30.14 in 7.0 mi SSE 4.6 mph - N/A Snow Light Snow
6:33 PM 15.8 °F 5.1 °F 10.4 °F 79% 30.15 in 10.0 mi SSE 8.1 mph - N/A   Overcast
6:54 PM 15.8 °F 6.1 °F 12.2 °F 86% 30.14 in 10.0 mi SSE 6.9 mph - N/A Snow Light Snow
7:14 PM 15.8 °F 7.2 °F 12.2 °F 86% 30.14 in 10.0 mi SSE 5.8 mph - N/A   Overcast
7:33 PM 15.8 °F 7.2 °F 12.2 °F 86% 30.14 in 10.0 mi SSE 5.8 mph - N/A   Overcast
7:53 PM 15.8 °F 6.1 °F 12.2 °F 86% 30.13 in 10.0 mi SSE 6.9 mph - N/A   Overcast
8:14 PM 15.8 °F 6.1 °F 12.2 °F 86% 30.11 in 10.0 mi SSE 6.9 mph - N/A   Overcast
8:33 PM 15.8 °F 5.1 °F 12.2 °F 86% 30.11 in 10.0 mi SSE 8.1 mph - N/A   Overcast
8:54 PM 15.8 °F 7.2 °F 10.4 °F 79% 30.11 in 10.0 mi SSE 5.8 mph - N/A   Overcast
9:13 PM 15.8 °F 7.2 °F 10.4 °F 79% 30.12 in 10.0 mi SSE 5.8 mph - N/A   Overcast
9:34 PM 17.6 °F 8.2 °F 12.2 °F 79% 30.11 in 10.0 mi SSE 6.9 mph - N/A   Overcast
9:53 PM 17.6 °F 9.3 °F 12.2 °F 79% 30.11 in 10.0 mi SSE 5.8 mph - N/A   Overcast
10:14 PM 17.6 °F 9.3 °F 12.2 °F 79% 30.12 in 10.0 mi SSE 5.8 mph - N/A   Overcast
10:33 PM 17.6 °F 8.2 °F 12.2 °F 79% 30.10 in 10.0 mi SSE 6.9 mph - N/A   Mostly Cloudy
10:54 PM 17.6 °F 10.7 °F 12.2 °F 79% 30.10 in 10.0 mi SSE 4.6 mph - N/A   Mostly Cloudy
11:13 PM 17.6 °F 7.3 °F 12.2 °F 79% 30.10 in 10.0 mi SSE 8.1 mph - N/A   Mostly Cloudy
11:34 PM 17.6 °F 8.2 °F 12.2 °F 79% 30.10 in 10.0 mi South 6.9 mph - N/A   Scattered Clouds
11:53 PM 17.6 °F 7.3 °F 12.2 °F 79% 30.10 in 10.0 mi South 8.1 mph - N/A   Overcast